Tracking 34352 objects as of 8-Jun-2026
HD Live streaming from Space Station
objects crossing your sky now

COSMOS 839 DEB

Track COSMOS 839 DEB now!
10-day predictions


NORAD ID: 13515
Int'l Code: 1976-067BC
Perigee: 992.0 km
Apogee: 2,014.7 km
Inclination: 65.9 °
Period: 115.9 minutes
Semi major axis: 7874 km
RCS: 0.0107 m2 (small)
Launch date: July 8, 1976
Source: Commonwealth of Independent States (former USSR) (CIS)
Launch site: PLESETSK MISSILE AND SPACE COMPLEX (PKMTR)

Note: This is SATELLITE DEBRIS
Your satellite tracking list
Your tracking list is empty




NASA's NSSDC Master Catalog

Two Line Element Set (TLE):
1 13515U 76067BC  26158.81393544  .00000694  00000-0  25847-2 0  9997
2 13515  65.9004  36.4929 0649375 125.3741 316.7760 12.42452797 79077
Source of the keplerian elements: AFSPC